Content
SEND FEEDBACK

Daily
Averages
Monthly
Summary
United States of America

WALTERS, OKLAHOMA


Home > North America > United States > Oklahoma
Elevation: 978 feet     Latitude: 34 21N     Longitude: 098 18W

WEATHER
 
SELECT A DAY
Number of Records: 181,605;   Date Range: 1/1/95 - 8/12/14
 
SHARE

PRINT THIS DATA

[ ← Previous Day ]
WEATHER ALMANAC - FEBRUARY 5, 2013
[ Next Day → ]
[ °C ]   °F
Weather ElementAverageHighLow
Temperature48 °F62.1 °F (1:53 pm)39.2 °F (5:30 am)
Dewpoint42.4 °F53.1 °F (3:53 pm)28.9 °F (1:53 am)
Humidity81.8 %100 % (10:20 pm)58 % (2:53 am)
Barometer30.00 in30.04 in (10:53 am)29.91 in (2:53 am)
Wind Speed3 mph10.4 mph (4:53 pm)
Weather ElementAverage
Visibility5.8 mi
Wind DirectionENE (55.4 °)

Weather ElementTotal
Precipitation---
Heating Degree Days14.4 (Base 65)
Growing Degree Days0.7 (Base 50)
Averaged from 41 records on February 5, 2013
WEATHER CONDITIONS BREAKOUT
WIND DIRECTION BREAKOUT
WEATHER BY HOUR - FEBRUARY 5, 2013
[ °C ]   °F
Local TimeTemperatureDewpointHumidityBarometerVisibilityWind DirectionWind SpeedGust SpeedPrecipitationEventsConditions
1:53 AM41.0 °F28.9 °F62 %29.92 in10.0 miNorth (360°)5.8 mphClear
2:53 AM43.0 °F28.9 °F58 %29.91 in10.0 miCalmClear
3:53 AM42.1 °F30.0 °F62 %29.91 in10.0 miNorth (350°)4.6 mphClear
4:53 AM43.0 °F30.0 °F60 %29.92 in10.0 miNNE (20°)3.5 mphClear
5:30 AM39.2 °F30.2 °F70 %29.94 in10.0 miNorth (10°)6.9 mphPartly Cloudy
5:43 AM42.8 °F30.2 °F61 %29.95 in10.0 miNorth (10°)8.1 mphMostly Cloudy
6:12 AM42.8 °F30.2 °F61 %29.95 in10.0 miNNE (20°)9.2 mphScattered Clouds
6:53 AM42.1 °F30.9 °F65 %29.96 in10.0 miNE (50°)3.5 mphPartly Cloudy
7:29 AM39.2 °F30.2 °F70 %29.97 in10.0 miCalmMostly Cloudy
7:53 AM41.0 °F33.1 °F73 %29.99 in10.0 miCalmOvercast
8:53 AM45.0 °F39.0 °F80 %30.01 in7.0 miNE (40°)5.8 mphOvercast
9:01 AM44.6 °F41.0 °F87 %30.01 in4.0 miNNE (20°)3.5 mphOvercast
9:53 AM46.9 °F43.0 °F86 %30.03 in4.0 miNorth (360°)4.6 mphOvercast
10:09 AM46.4 °F42.8 °F87 %30.03 in2.0 miCalmOvercast
10:22 AM46.4 °F42.8 °F87 %30.03 in3.0 miCalmOvercast
10:27 AM46.4 °F44.6 °F93 %30.03 in1.8 miCalmOvercast
10:53 AM48.0 °F45.0 °F89 %30.04 in1.2 miCalmOvercast
11:14 AM50.0 °F46.4 °F87 %30.04 in2.5 miCalmOvercast
11:34 AM51.8 °F46.4 °F82 %30.04 in3.0 miCalmOvercast
11:53 AM52.0 °F48.0 °F86 %30.04 in5.0 miCalmOvercast
12:53 PM57.9 °F51.1 °F78 %30.01 in9.0 miNorth (10°)3.5 mphScattered Clouds
1:53 PM62.1 °F51.1 °F67 %29.99 in10.0 miNE (50°)5.8 mphClear
2:53 PM62.1 °F51.1 °F67 %29.97 in10.0 miESE (110°)6.9 mphClear
3:53 PM62.1 °F53.1 °F72 %29.97 in10.0 miESE (120°)9.2 mphClear
4:53 PM62.1 °F53.1 °F72 %29.96 in10.0 miEast (100°)10.4 mphClear
5:53 PM59.0 °F52.0 °F78 %29.97 in9.0 miSE (130°)6.9 mphClear
6:53 PM54.0 °F51.1 °F90 %30.00 in8.0 miSE (130°)5.8 mphClear
7:35 PM53.6 °F50.0 °F88 %30.00 in7.0 miEast (100°)3.5 mphMostly Cloudy
7:53 PM53.1 °F50.0 °F89 %30.01 in7.0 miEast (100°)4.6 mphOvercast
8:31 PM51.8 °F48.2 °F88 %30.01 in6.0 miENE (70°)3.5 mphScattered Clouds
8:53 PM51.1 °F48.0 °F89 %30.02 in5.0 miESE (110°)5.8 mphClear
9:53 PM50.0 °F48.0 °F93 %30.02 in2.5 miCalmClear
10:09 PM46.4 °F44.6 °F93 %30.02 in0.8 miCalmClear
10:20 PM46.4 °F46.4 °F100 %30.02 in0.2 miCalmFogFog
10:39 PM42.8 °F42.8 °F100 %30.02 in0.2 miCalmFogFog
10:53 PM41.0 °F39.9 °F96 %30.03 in0.2 miCalmFogFog
11:08 PM42.8 °F42.8 °F100 %30.02 in0.2 miCalmFogFog
11:18 PM42.8 °F42.8 °F100 %30.02 in1.0 miCalmMist
11:24 PM44.6 °F42.8 °F93 %30.02 in3.0 miCalmMist
11:41 PM44.6 °F44.6 °F100 %30.02 in4.0 miCalmOvercast
11:53 PM46.0 °F45.0 °F96 %30.03 in3.0 miCalmOvercast
Hourly data recorded from KLAW, located miles away from Walters, Oklahoma







STORIES FROM OUR PARTNERS